| time (UTC) | temp C | wind direction | speed KPH | gust KPH | rain 1hr cm | rain 24hr cm | rain mn cm | humidity % | barometer mb |
| 20260904133033 | 24 | 0 | 0.0 | 4.8 | 0.00 | 0.08 | 0.05 | 86 | 1012.6 |
| 20260904131533 | 23 | 0 | 0.0 | 9.7 | 0.00 | 0.08 | 0.05 | 88 | 1012.6 |
| 20260904130033 | 23 | 0 | 0.0 | 6.4 | 0.00 | 0.08 | 0.05 | 91 | 1012.6 |
| 20260904124537 | 23 | 0 | 0.0 | 6.4 | 0.00 | 0.08 | 0.05 | 92 | 1012.6 |
| 20260904123033 | 22 | 0 | 0.0 | 4.8 | 0.00 | 0.08 | 0.05 | 95 | 1012.8 |
| 20260904121533 | 22 | 0 | 0.0 | 9.7 | 0.00 | 0.08 | 0.05 | 95 | 1012.5 |
| 20260904120034 | 22 | 0 | 0.0 | 4.8 | 0.00 | 0.08 | 0.05 | 96 | 1012.3 |
| 20260904114543 | 22 | 277 | 1.6 | 4.8 | 0.00 | 0.08 | 0.05 | 97 | 1012.3 |
| 20260904113033 | 21 | 0 | 1.6 | 6.4 | 0.00 | 0.08 | 0.05 | 97 | 1012.2 |
| 20260904111534 | 21 | 0 | 0.0 | 3.2 | 0.00 | 0.08 | 0.05 | 97 | 1012.1 |
| 20260904110037 | 22 | 0 | 0.0 | 3.2 | 0.00 | 0.08 | 0.05 | 97 | 1011.8 |
| 20260904104532 | 22 | 0 | 0.0 | 0.0 | 0.00 | 0.08 | 0.05 | 97 | 1011.6 |
| 20260904103037 | 22 | 0 | 0.0 | 1.6 | 0.00 | 0.08 | 0.05 | 97 | 1011.4 |
| 20260904101537 | 22 | 0 | 0.0 | 0.0 | 0.00 | 0.08 | 0.05 | 97 | 1011.4 |
| 20260904100032 | 22 | 0 | 0.0 | 3.2 | 0.00 | 0.08 | 0.05 | 98 | 1011.5 |
| 20260904094537 | 22 | 0 | 0.0 | 1.6 | 0.00 | 0.20 | 0.05 | 98 | 1011.6 |
| 20260904093035 | 22 | 0 | 0.0 | 0.0 | 0.00 | 0.20 | 0.05 | 98 | 1011.5 |
| 20260904091535 | 22 | 0 | 0.0 | 0.0 | 0.00 | 0.20 | 0.05 | 97 | 1011.6 |
| 20260904090033 | 22 | 0 | 0.0 | 0.0 | 0.00 | 0.20 | 0.05 | 97 | 1011.8 |
| 20260904084532 | 22 | 0 | 0.0 | 0.0 | 0.00 | 0.58 | 0.05 | 97 | 1011.6 |
| 20260904083041 | 22 | 0 | 0.0 | 0.0 | 0.00 | 0.58 | 0.05 | 97 | 1011.6 |
| 20260904081532 | 22 | 0 | 0.0 | 0.0 | 0.00 | 0.58 | 0.05 | 97 | 1011.5 |
| 20260904080033 | 22 | 0 | 0.0 | 0.0 | 0.00 | 0.58 | 0.05 | 97 | 1011.7 |
| 20260904074536 | 22 | 0 | 0.0 | 0.0 | 0.00 | 0.64 | 0.05 | 97 | 1011.7 |
| 20260904073031 | 22 | 0 | 0.0 | 0.0 | 0.00 | 0.64 | 0.05 | 97 | 1011.4 |
| 20260904071535 | 22 | 0 | 0.0 | 0.0 | 0.00 | 0.64 | 0.05 | 97 | 1011.3 |
| 20260904070031 | 22 | 0 | 0.0 | 0.0 | 0.00 | 0.64 | 0.05 | 97 | 1011.0 |
| 20260904064534 | 22 | 0 | 0.0 | 0.0 | 0.00 | 0.86 | 0.05 | 97 | 1010.9 |
| 20260904063044 | 22 | 0 | 0.0 | 0.0 | 0.03 | 0.86 | 0.05 | 97 | 1011.1 |
| 20260904061536 | 22 | 0 | 0.0 | 0.0 | 0.05 | 0.86 | 0.05 | 97 | 1011.2 |
| 20260904060053 | 22 | 0 | 0.0 | 0.0 | 0.05 | 0.86 | 0.05 | 97 | 1011.8 |
| 20260904054533 | 22 | 0 | 0.0 | 0.0 | 0.05 | 1.55 | 0.05 | 97 | 1012.1 |
| 20260904053035 | 22 | 0 | 0.0 | 0.0 | 0.03 | 1.52 | 0.03 | 97 | 1012.3 |
| 20260904051532 | 22 | 0 | 0.0 | 0.0 | 0.00 | 1.47 | 0.00 | 97 | 1012.2 |
| 20260904050033 | 22 | 0 | 0.0 | 0.0 | 0.00 | 1.47 | 0.00 | 97 | 1012.2 |
| 20260904044543 | 22 | 0 | 0.0 | 0.0 | 0.00 | 1.47 | 0.00 | 97 | 1011.8 |
| 20260904043037 | 22 | 0 | 0.0 | 0.0 | 0.00 | 1.47 | 0.00 | 97 | 1011.7 |
| 20260904041536 | 22 | 0 | 0.0 | 0.0 | 0.00 | 1.47 | 0.00 | 96 | 1012.1 |
| 20260904040037 | 22 | 0 | 0.0 | 0.0 | 0.00 | 1.47 | 0.00 | 95 | 1012.2 |
| 20260904034536 | 22 | 0 | 0.0 | 0.0 | 0.00 | 1.52 | 1.47 | 95 | 1012.4 |
| 20260904033030 | 22 | 0 | 0.0 | 0.0 | 0.00 | 1.52 | 1.47 | 95 | 1012.8 |
| 20260904031533 | 22 | 0 | 0.0 | 0.0 | 0.00 | 1.52 | 1.47 | 95 | 1013.2 |
| 20260904030035 | 22 | 0 | 0.0 | 0.0 | 0.00 | 1.52 | 1.47 | 95 | 1012.9 |
| 20260904024536 | 22 | 0 | 0.0 | 0.0 | 0.00 | 1.52 | 1.47 | 94 | 1012.7 |
| 20260904023034 | 22 | 0 | 0.0 | 0.0 | 0.00 | 1.52 | 1.47 | 93 | 1012.8 |
| 20260904021533 | 22 | 0 | 0.0 | 0.0 | 0.00 | 1.52 | 1.47 | 93 | 1012.9 |
| 20260904020039 | 22 | 0 | 0.0 | 0.0 | 0.00 | 1.52 | 1.47 | 93 | 1013.3 |
| 20260904014539 | 23 | 0 | 0.0 | 0.0 | 0.00 | 1.52 | 1.47 | 92 | 1013.1 |
| 20260904013035 | 23 | 0 | 0.0 | 0.0 | 0.00 | 1.52 | 1.47 | 92 | 1013.5 |
| 20260904011538 | 23 | 0 | 0.0 | 1.6 | 0.00 | 1.52 | 1.47 | 92 | 1013.9 |
| 20260904010044 | 23 | 0 | 0.0 | 0.0 | 0.00 | 1.52 | 1.47 | 91 | 1013.5 |
| 20260904004541 | 23 | 0 | 0.0 | 0.0 | 0.00 | 1.52 | 1.47 | 91 | 1013.3 |
| 20260904003035 | 23 | 0 | 0.0 | 0.0 | 0.00 | 1.52 | 1.47 | 90 | 1013.1 |
| 20260904001533 | 23 | 0 | 0.0 | 0.0 | 0.00 | 1.52 | 1.47 | 89 | 1012.8 |
| 20260904000034 | 23 | 0 | 0.0 | 0.0 | 0.00 | 1.52 | 1.47 | 88 | 1012.7 |
| 20260903234541 | 24 | 0 | 0.0 | 0.0 | 0.00 | 1.52 | 1.47 | 87 | 1013.0 |
| 20260903233034 | 25 | 0 | 0.0 | 0.0 | 0.00 | 1.52 | 1.47 | 85 | 1013.0 |
| 20260903231534 | 25 | 0 | 0.0 | 0.0 | 0.03 | 1.52 | 1.47 | 85 | 1013.0 |
| 20260903230033 | 26 | 0 | 0.0 | 0.0 | 0.03 | 1.52 | 1.47 | 82 | 1012.6 |
| 20260903224532 | 26 | 0 | 0.0 | 0.0 | 0.03 | 1.55 | 1.47 | 81 | 1012.5 |
| 20260903223042 | 26 | 0 | 0.0 | 0.0 | 0.03 | 1.55 | 1.47 | 79 | 1012.5 |
| 20260903221533 | 27 | 0 | 0.0 | 0.0 | 0.00 | 1.52 | 1.47 | 79 | 1012.5 |
| 20260903220040 | 27 | 0 | 0.0 | 1.6 | 0.00 | 1.52 | 1.47 | 81 | 1012.3 |
| 20260903214535 | 28 | 0 | 0.0 | 3.2 | 0.00 | 1.52 | 1.47 | 77 | 1012.0 |
| 20260903213038 | 28 | 292 | 0.0 | 0.0 | 0.00 | 1.52 | 1.47 | 76 | 1012.1 |
| 20260903211602 | 28 | 0 | 0.0 | 3.2 | 0.00 | 1.52 | 1.47 | 74 | 1012.2 |
| 20260903210035 | 28 | 0 | 0.0 | 4.8 | 0.00 | 1.52 | 1.47 | 73 | 1012.2 |
| 20260903204533 | 28 | 0 | 0.0 | 0.0 | 0.00 | 1.52 | 1.47 | 77 | 1012.2 |
| 20260903203032 | 28 | 0 | 0.0 | 4.8 | 0.00 | 1.52 | 1.47 | 73 | 1012.4 |
| 20260903201534 | 29 | 0 | 0.0 | 6.4 | 0.00 | 1.52 | 1.47 | 68 | 1012.4 |
| 20260903200032 | 29 | 0 | 0.0 | 6.4 | 0.00 | 1.52 | 1.47 | 67 | 1012.5 |
| 20260903194534 | 29 | 0 | 0.0 | 6.4 | 0.00 | 1.52 | 1.47 | 67 | 1012.4 |
| 20260903193035 | 29 | 246 | 1.6 | 11.3 | 0.00 | 1.52 | 1.47 | 69 | 1012.6 |
| 20260903191532 | 29 | 0 | 0.0 | 9.7 | 0.00 | 1.52 | 1.47 | 68 | 1012.9 |
| 20260903190033 | 28 | 0 | 0.0 | 4.8 | 0.00 | 1.52 | 1.47 | 69 | 1013.1 |
| 20260903184531 | 28 | 264 | 1.6 | 9.7 | 0.00 | 1.52 | 1.47 | 71 | 1013.2 |
| 20260903183033 | 28 | 254 | 0.0 | 6.4 | 0.00 | 1.52 | 1.47 | 72 | 1013.2 |
| 20260903181534 | 28 | 0 | 0.0 | 6.4 | 0.00 | 1.52 | 1.47 | 71 | 1013.5 |
| 20260903180035 | 28 | 308 | 0.0 | 8.0 | 0.00 | 1.52 | 1.47 | 72 | 1013.8 |
| 20260903174552 | 27 | 0 | 1.6 | 6.4 | 0.00 | 1.52 | 1.47 | 73 | 1013.8 |
| 20260903173039 | 27 | 0 | 0.0 | 8.0 | 0.00 | 1.52 | 1.47 | 76 | 1014.0 |
| 20260903171535 | 27 | 0 | 1.6 | 6.4 | 0.00 | 1.52 | 1.47 | 79 | 1014.2 |
| 20260903170042 | 26 | 0 | 0.0 | 12.9 | 0.00 | 1.52 | 1.47 | 81 | 1014.2 |
| 20260903164538 | 26 | 0 | 0.0 | 4.8 | 0.00 | 1.52 | 1.47 | 84 | 1014.8 |
| 20260903163032 | 25 | 0 | 0.0 | 6.4 | 0.00 | 1.52 | 1.47 | 84 | 1014.9 |
| 20260903161531 | 25 | 0 | 0.0 | 1.6 | 0.00 | 1.52 | 1.47 | 86 | 1015.3 |
| 20260903160035 | 25 | 0 | 0.0 | 6.4 | 0.00 | 1.52 | 1.47 | 87 | 1015.4 |
| 20260903154535 | 25 | 0 | 0.0 | 6.4 | 0.00 | 1.52 | 1.47 | 86 | 1015.5 |
| 20260903153036 | 25 | 0 | 0.0 | 6.4 | 0.00 | 1.52 | 1.47 | 89 | 1015.8 |
| 20260903151542 | 25 | 234 | 0.0 | 4.8 | 0.00 | 1.52 | 1.47 | 90 | 1015.8 |
| 20260903150034 | 23 | 0 | 0.0 | 6.4 | 0.00 | 1.52 | 1.47 | 92 | 1015.6 |
| 20260903144534 | 23 | 0 | 0.0 | 4.8 | 0.00 | 1.52 | 1.47 | 94 | 1015.8 |
| 20260903143037 | 22 | 0 | 0.0 | 4.8 | 0.00 | 1.52 | 1.47 | 97 | 1016.0 |
| 20260903141535 | 22 | 0 | 0.0 | 4.8 | 0.00 | 1.52 | 1.47 | 97 | 1015.7 |
| 20260903140035 | 22 | 0 | 0.0 | 3.2 | 0.00 | 1.52 | 1.47 | 98 | 1015.6 |
| 20260903134532 | 21 | 0 | 0.0 | 1.6 | 0.00 | 1.52 | 1.47 | 98 | 1015.3 |